SCP
0 0 0 0 0 0 0 0 0 0 0 0 0 0 0 0 0 0 -0 -0 -0 0 0 0 0 0 0 0 0 0 0 0 0 0 0 0 0 0 0 0 0 0 0 0
0 -0 0 0 0 0 0 0 0 0 0 0 0 0 0 0 0 0 -0 -0 -0 0 0 0 0 0 0 0 0 0 0 0 0 0 0 0 0 0 0 0 0 0 0 0
-0 -0 -0 0 0 0 0 0 0 0 0 0 0 0 0 0 0 0 -0 0 0 -0 -0 0 -0 0 0 0 0 0 0 0 0 0 0 0 0 0 0 0 0 0 0 0
-0 -0 -0 -0 -0 0 0 0 0 0 0 0 0 0 0 0 0 0 -0 -0 0 0 0 0 0 0 0 0 0 0 0 0 0 0 0 0 0 0 0 0 0 0 0 0
-0 -0 -0 -0 -0 0 0 0 0 0 0 0 0 0 0 0 0 0 0 -0 -0 0 0 0 -0 -0 -0 -0 -0 0 0 0 0 0 0 0 0 0 0 0 0 0 0 0
-0 -0 -0 -0 -0 0 0 0 0 0 0 0 0 0 0 0 0 -0 -0 -0 -0 0 0 0 0 0 -0 -0 -0 -0 -0 -0 -0 0 0 0 0 0 0 0 0 0 0 0
-0 -0 -0 -0 -0 0 0 0 0 0 0 0 0 0 0 0 0 -0 0 -0 -0 0 0 0 0 0 0 -0 -0 -0 -0 -0 -0 -0 -0 0 0 0 0 0 0 0 0 0
-0 -0 -0 -0 0 0 0 0 0 0 0 0 0 0 0 0 0 0 0 0 0 0 0 0 0 0 0 -0 -0 -0 -0 -0 -0 -0 -0 0 0 0 0 0 0 0 0 0
-0 -0 -0 -0 0 -0 0 0 0 0 0 0 0 0 0 0 0 0 0 0 0 0 0 0 0 -0 -0 -0 -0 -0 -0 -0 -0 -0 0 -0 0 -0 0 0 0 0 0 0
-0 -0 -0 -0 -0 0 0 0 0 0 0 0 0 0 0 0 0 0 0 0 0 0 0 0 0 0 0 -0 -0 -0 -0 -0 -0 -0 -0 -0 -0 0 0 0 0 0 0 0
-0 -0 0 -0 0 0 0 0 0 0 0 0 0 0 0 0 0 0 0 0 0 0 0 0 0 0 0 0 0 -0 -0 -0 -0 0 -0 -0 -0 -0 0 0 0 0 0 0
-0 -0 0 -0 -0 0 0 0 0 0 0 0 0 0 0 0 0 0 0 0 0 0 0 0 0 0 0 0 0 0 0 0 -0 -0 -0 -0 -0 -0 -0 0 0 0 0 0
-0 -0 -0 -0 -0 0 0 0 0 0 0 0 0 0 0 0 0 0 0 0 0 0 0 0 0 0 0 0 0 0 0 0 0 0 0 -0 -0 -0 -0 -0 0 0 0 -0
-0 -0 -0 -0 0 0 0 0 0 0 0 0 0 0 0 0 0 0 0 0 0 0 0 0 0 0 0 0 0 0 0 0 0 0 0 0 0 -0 -0 -0 -0 0 0 -0
-0 -0 -0 -0 -0 -0 0 0 0 0 0 0 0 0 0 0 0 0 0 0 0 0 0 0 0 0 0 0 0 0 0 0 0 0 0 0 0 0 0 0 0 -0 -0 -0
-0 -0 -0 -0 -0 0 0 0 0 0 0 0 0 0 0 0 0 0 0 0 0 0 0 0 0 0 0 0 0 0 0 0 0 0 0 0 0 0 0 0 0 0 0 0
0 -0 -0 -0 -0 -0 0 0 0 0 0 0 0 0 0 0 0 0 0 0 0 0 0 0 0 0 0 0 0 -0 -0 -0 0 0 0 0 0 0 0 0 0 0 0 0
-0 -0 -0 -0 -0 -0 0 0 -0 0 0 0 0 0 0 0 0 0 0 0 0 0 0 0 0 0 0 0 -0 -0 0 0 -0 0 0 0 0 0 0 0 0 0 0 0
-0 -0 -0 -0 -0 0 0 -0 0 0 0 0 0 0 0 0 0 0 0 0 0 0 0 0 0 0 0 0 0 0 0 0 0 0 0 0 0 0 0 0 0 0 0 -0
-0 -0 0 0 -0 0 0 0 0 0 0 0 0 0 0 0 0 0 0 0 0 0 0 0 0 0 0 0 0 0 0 0 0 0 0 0 0 0 0 0 0 0 0 0
-0 -0 0 0 0 0 0 0 0 0 0 0 0 0 0 0 0 0 0 0 0 0 0 0 0 0 0 0 0 0 0 0 0 0 0 0 0 0 0 0 0 0 0 -0
-0 -0 0 0 0 0 0 0 0 0 0 0 0 0 0 0 0 0 0 0 0 0 0 0 0 0 0 0 0 0 0 0 0 0 0 0 0 0 -0 -0 0 0 -0 -0
-0 -0 -0 0 0 0 0 0 0 0 0 0 0 0 0 0 0 0 0 0 0 0 0 0 0 0 0 0 0 0 0 0 0 0 0 0 0 0 -0 -0 0 0 0 0
-0 -0 -0 0 0 0 0 0 0 0 0 0 0 0 0 0 0 0 0 0 0 0 0 0 0 0 0 0 0 0 0 0 0 0 0 0 0 0 0 0 0 0 0 0
-0 -0 0 0 0 0 0 0 0 0 0 0 0 0 0 0 0 0 0 0 0 0 0 0 0 0 0 0 0 0 0 0 -0 0 0 0 0 0 0 0 0 0 0 0
0 0 0 0 0 0 0 0 0 0 0 0 0 0 0 0 0 0 0 0 0 0 0 0 0 0 0 0 0 0 0 0 0 0 0 0 0 0 0 0 0 0 0 0
-0 -0 0 -0 0 0 0 0 0 0 0 0 0 0 0 0 0 0 0 0 0 0 0 0 0 0 0 -0 -0 -0 -0 -0 -0 -0 0 0 0 0 0 0 0 0 0 0
Wind_Speed_500mb
57 56 45 45 44 44 38 31 5 10 16 10 6 8 12 15 29 47 25 23 33 43 55 20 7 21 8 19 11 45 21 4 6 23 7 4 12 18 12 16 18 4 4 12
59 59 49 46 43 38 40 15 19 19 35 7 8 7 11 13 14 31 10 20 21 20 14 16 5 15 8 18 16 3 30 15 4 8 8 4 32 18 45 7 8 21 15 13
61 57 52 48 45 36 36 16 5 10 31 38 10 5 14 11 27 23 36 31 37 22 9 7 6 4 2 13 9 36 5 8 37 30 28 9 6 34 39 24 8 24 33 3
63 55 53 48 48 35 36 20 8 8 6 14 18 20 8 10 11 20 14 11 21 9 8 5 3 5 7 2 15 7 7 13 12 33 16 29 18 19 20 40 50 18 24 13
62 57 49 49 44 44 45 22 9 6 11 10 15 25 19 30 33 13 21 18 21 22 5 14 9 13 8 4 4 6 2 7 13 11 11 15 9 26 28 27 43 31 8 10
65 59 54 48 47 40 48 42 48 35 25 8 12 20 31 25 20 23 43 20 14 20 29 6 5 13 10 2 8 7 8 6 7 9 20 19 25 17 28 39 9 41 19 12
64 61 58 57 53 45 54 42 39 16 12 14 21 19 20 31 30 28 17 28 18 6 19 8 5 5 3 7 5 7 9 10 7 5 8 6 2 19 19 32 29 31 7 21
64 62 63 61 63 57 61 59 60 25 12 18 19 31 25 33 33 27 29 50 44 4 3 6 9 6 9 7 12 12 7 5 6 7 6 14 13 9 7 3 35 25 24 9
65 66 67 69 70 67 69 77 68 50 18 29 63 15 35 21 9 7 30 50 37 21 5 5 8 8 8 8 4 2 11 3 6 2 5 7 8 8 22 13 21 12 21 19
65 73 72 77 77 81 82 88 80 64 42 63 44 19 28 24 18 6 5 8 15 32 5 4 6 8 4 5 11 13 12 5 15 11 4 10 19 13 12 5 6 9 11 25
71 77 77 76 76 69 57 74 82 76 60 69 62 66 42 30 37 11 12 9 5 7 11 8 8 7 11 6 7 10 12 13 10 5 5 15 16 6 15 10 2 17 38 28
76 78 79 79 78 65 54 58 60 69 57 25 53 75 79 84 68 44 35 10 10 16 6 2 5 1 3 7 5 4 4 13 12 17 13 14 15 32 42 34 35 18 8 8
74 79 82 83 80 63 58 65 66 62 50 42 37 61 82 75 69 60 22 21 17 14 14 9 5 5 7 6 10 2 4 8 10 6 11 16 26 42 46 52 55 66 53 29
75 82 82 80 65 61 58 69 65 74 32 12 20 51 53 65 67 60 61 28 35 17 22 6 6 6 10 6 6 7 9 6 12 11 14 33 50 53 60 62 73 66 60 38
79 86 85 80 66 64 67 74 79 71 43 5 8 39 59 49 54 70 54 43 43 27 6 4 6 6 4 3 4 6 11 15 5 17 32 33 43 68 90 83 85 85 78 81
82 86 89 79 79 72 77 45 53 66 79 19 5 10 28 58 61 60 65 56 36 22 14 9 12 9 11 4 7 33 27 56 61 34 80 79 79 74 76 77 83 82 81 82
85 87 87 73 77 71 46 20 20 80 63 13 5 2 10 36 43 37 42 49 28 29 14 7 7 8 19 4 18 5 27 42 57 66 79 69 83 78 88 83 81 74 66 58
86 88 80 59 63 35 16 15 38 60 22 8 6 4 4 22 14 8 23 22 27 20 17 6 6 9 11 9 31 26 36 37 39 35 40 67 70 61 66 64 60 42 41 42
87 83 50 42 16 8 9 44 58 40 11 7 6 12 7 28 11 13 18 19 7 12 6 6 18 4 10 22 10 17 16 5 23 29 37 28 37 53 34 30 27 27 21 24
80 54 11 9 18 43 59 21 19 8 8 5 4 11 6 23 9 3 6 5 5 6 9 18 9 10 52 32 28 23 18 14 14 11 14 19 4 13 21 21 28 34 32 29
40 27 16 31 33 14 6 8 7 4 4 15 16 13 10 17 7 6 9 5 3 4 9 11 6 9 11 25 28 28 24 21 18 14 18 22 25 30 32 30 30 34 39 43
55 57 73 68 16 10 9 5 4 3 11 7 9 10 12 22 16 6 8 6 3 11 6 6 6 9 10 11 16 16 17 18 19 21 24 27 34 35 38 39 36 33 36 37
65 14 19 19 12 10 14 12 4 4 7 20 15 7 17 11 12 5 6 9 11 5 3 9 10 4 8 3 3 6 9 14 17 20 26 32 38 37 40 44 42 43 43 40
11 12 15 13 8 9 9 11 11 14 13 36 33 5 8 12 8 6 9 8 6 7 7 15 2 4 3 5 10 15 16 20 26 29 33 38 43 47 43 43 40 46 53 50
11 15 12 10 1 4 5 2 7 12 38 48 15 9 7 3 7 5 7 4 10 14 12 4 5 2 7 14 18 21 25 31 36 39 43 45 48 53 56 46 48 50 48 53
15 18 11 4 5 5 4 4 5 23 37 27 10 6 7 8 8 8 14 13 13 8 5 13 9 5 11 17 20 26 33 39 45 47 51 54 55 59 67 64 58 54 53 55
11 9 18 13 13 5 8 20 17 33 24 7 6 11 12 4 5 3 9 10 5 8 16 6 5 11 14 17 24 29 35 41 44 48 49 53 54 58 65 75 64 56 56 56
Wind_Direction_500mb
314 315 313 312 315 314 307 287 254 235 186 179 235 238 199 231 259 263 262 268 256 259 275 253 251 197 49 346 285 199 202 149 173 213 202 248 193 182 157 184 216 226 154 265
308 307 309 309 304 310 304 246 244 223 194 199 220 286 272 211 248 262 256 252 228 293 279 262 132 55 352 15 11 256 193 196 150 16 326 267 200 207 201 118 88 205 186 254
311 303 298 298 301 304 297 267 261 185 214 236 178 191 264 247 251 251 252 257 271 248 284 296 125 84 304 341 21 28 60 208 216 212 213 130 224 208 204 199 168 207 216 258
309 305 295 291 297 297 295 271 242 228 231 231 225 232 236 255 266 227 257 267 269 177 217 295 262 156 188 35 5 43 46 45 339 236 260 194 198 209 202 209 222 192 209 185
310 311 305 295 295 295 282 260 260 227 265 268 210 227 226 236 259 230 268 248 268 279 250 223 272 202 195 116 77 81 23 50 346 3 288 320 316 214 195 215 229 241 132 214
306 307 304 299 292 286 272 265 253 230 258 232 212 221 228 237 246 241 247 254 271 275 234 271 112 43 82 156 148 134 148 110 33 326 357 318 252 241 218 218 192 219 204 188
302 304 303 302 296 287 279 283 240 210 238 214 232 245 228 242 250 257 250 235 231 313 266 262 307 23 272 166 271 153 157 118 109 280 334 268 200 303 290 242 231 222 183 189
303 302 302 297 295 289 283 277 270 233 250 230 220 220 231 244 245 260 269 252 250 269 155 42 0 9 24 282 211 190 139 107 133 136 153 280 317 7 19 244 248 236 226 171
305 305 296 296 293 285 281 276 273 255 260 231 228 216 212 227 210 333 256 262 256 225 134 123 159 227 238 205 4 286 173 78 104 180 131 210 228 79 332 290 271 261 195 198
303 300 301 300 297 286 275 265 261 254 247 244 214 203 211 198 191 196 241 190 182 195 162 130 163 239 219 282 148 153 168 172 192 201 188 261 248 288 44 193 285 323 207 184
303 307 307 303 301 301 295 273 253 249 256 273 233 218 204 192 197 185 184 130 198 157 197 178 211 163 215 117 179 170 163 173 189 199 154 265 197 143 197 225 317 49 69 57
306 310 307 303 302 292 291 276 261 254 246 255 231 218 232 226 225 199 171 197 183 175 126 271 84 22 32 167 240 145 229 186 199 189 207 262 198 214 224 231 245 239 224 275
311 312 309 308 300 288 278 278 268 249 230 241 215 218 221 218 225 230 181 203 202 185 191 161 192 190 139 162 247 284 261 178 204 91 245 250 251 245 249 256 257 259 263 249
314 314 317 315 305 288 281 278 279 229 214 187 223 209 213 223 220 227 222 204 197 203 187 146 151 168 195 216 204 171 201 90 211 229 252 280 277 275 272 272 269 266 265 262
314 317 317 315 305 290 282 274 275 269 208 163 181 207 217 211 217 215 221 226 205 182 138 119 217 216 149 238 70 269 188 225 160 254 252 246 253 253 257 254 253 258 264 270
316 317 320 315 311 292 280 274 264 233 203 146 159 190 197 210 210 211 215 212 203 208 183 198 221 171 145 145 212 249 247 252 247 248 255 255 256 257 258 260 261 261 264 265
318 319 317 310 310 315 234 194 216 189 168 139 74 359 168 192 193 208 212 219 216 217 193 208 184 194 190 196 249 87 251 264 266 260 263 265 254 244 247 252 257 258 261 262
319 315 313 312 307 305 81 143 173 155 132 108 105 274 91 159 152 139 180 175 193 203 208 193 169 186 194 251 253 257 264 263 275 280 268 255 255 250 249 249 251 241 256 271
319 317 303 301 286 259 116 136 157 165 151 143 110 144 208 170 139 144 167 168 167 192 208 205 164 207 215 236 180 206 245 253 294 290 310 288 248 248 236 242 257 259 266 303
327 326 301 271 314 147 140 133 163 154 199 158 163 148 152 171 142 118 120 185 171 183 234 149 197 231 236 229 243 250 251 260 297 322 277 311 294 255 251 247 242 244 246 249
343 338 296 299 288 263 154 150 136 148 192 192 176 171 136 185 134 160 195 172 136 141 247 166 222 256 203 219 224 233 246 262 278 270 265 276 280 284 280 270 267 266 263 268
312 305 290 289 256 189 178 156 87 180 210 199 156 177 148 165 168 120 170 163 91 230 139 124 247 239 134 176 205 235 258 265 271 278 276 266 268 274 273 273 274 271 269 266
316 264 217 213 217 197 184 175 209 222 175 179 163 135 133 141 175 95 141 152 212 91 93 219 231 95 119 142 228 247 274 283 283 283 282 278 276 274 278 278 273 273 264 262
289 267 256 212 188 234 185 187 178 193 176 159 149 114 147 164 165 157 153 218 109 194 225 231 218 182 47 351 311 296 295 299 300 299 294 293 291 286 284 284 282 273 270 264
261 270 251 239 153 103 325 105 137 149 155 147 116 79 115 137 154 157 107 121 228 204 220 191 160 14 329 323 316 316 311 310 310 308 305 301 297 293 288 285 282 278 268 263
227 241 281 263 303 295 145 217 233 151 150 140 119 140 162 194 154 149 202 145 218 231 167 142 166 239 303 311 313 313 311 311 311 309 306 304 300 296 291 285 278 278 277 271
242 244 269 263 272 295 264 167 186 163 159 167 137 162 193 97 90 254 192 203 189 141 140 163 254 303 307 314 320 322 321 319 316 311 306 300 297 291 287 285 286 279 271 269
Wind_Speed_850mb
57 56 45 45 44 44 38 31 5 10 16 10 6 8 12 15 29 47 25 23 33 43 55 20 7 21 8 19 11 45 21 4 6 23 7 4 12 18 12 16 18 4 4 12
59 59 49 46 43 38 40 15 19 19 35 7 8 7 11 13 14 31 10 20 21 20 14 16 5 15 8 18 16 3 30 15 4 8 8 4 32 18 45 7 8 21 15 13
61 57 52 48 45 36 36 16 5 10 31 38 10 5 14 11 27 23 36 31 37 22 9 7 6 4 2 13 9 36 5 8 37 30 28 9 6 34 39 24 8 24 33 3
63 55 53 48 48 35 36 20 8 8 6 14 18 20 8 10 11 20 14 11 21 9 8 5 3 5 7 2 15 7 7 13 12 33 16 29 18 19 20 40 50 18 24 13
62 57 49 49 44 44 45 22 9 6 11 10 15 25 19 30 33 13 21 18 21 22 5 14 9 13 8 4 4 6 2 7 13 11 11 15 9 26 28 27 43 31 8 10
65 59 54 48 47 40 48 42 48 35 25 8 12 20 31 25 20 23 43 20 14 20 29 6 5 13 10 2 8 7 8 6 7 9 20 19 25 17 28 39 9 41 19 12
64 61 58 57 53 45 54 42 39 16 12 14 21 19 20 31 30 28 17 28 18 6 19 8 5 5 3 7 5 7 9 10 7 5 8 6 2 19 19 32 29 31 7 21
64 62 63 61 63 57 61 59 60 25 12 18 19 31 25 33 33 27 29 50 44 4 3 6 9 6 9 7 12 12 7 5 6 7 6 14 13 9 7 3 35 25 24 9
65 66 67 69 70 67 69 77 68 50 18 29 63 15 35 21 9 7 30 50 37 21 5 5 8 8 8 8 4 2 11 3 6 2 5 7 8 8 22 13 21 12 21 19
65 73 72 77 77 81 82 88 80 64 42 63 44 19 28 24 18 6 5 8 15 32 5 4 6 8 4 5 11 13 12 5 15 11 4 10 19 13 12 5 6 9 11 25
71 77 77 76 76 69 57 74 82 76 60 69 62 66 42 30 37 11 12 9 5 7 11 8 8 7 11 6 7 10 12 13 10 5 5 15 16 6 15 10 2 17 38 28
76 78 79 79 78 65 54 58 60 69 57 25 53 75 79 84 68 44 35 10 10 16 6 2 5 1 3 7 5 4 4 13 12 17 13 14 15 32 42 34 35 18 8 8
74 79 82 83 80 63 58 65 66 62 50 42 37 61 82 75 69 60 22 21 17 14 14 9 5 5 7 6 10 2 4 8 10 6 11 16 26 42 46 52 55 66 53 29
75 82 82 80 65 61 58 69 65 74 32 12 20 51 53 65 67 60 61 28 35 17 22 6 6 6 10 6 6 7 9 6 12 11 14 33 50 53 60 62 73 66 60 38
79 86 85 80 66 64 67 74 79 71 43 5 8 39 59 49 54 70 54 43 43 27 6 4 6 6 4 3 4 6 11 15 5 17 32 33 43 68 90 83 85 85 78 81
82 86 89 79 79 72 77 45 53 66 79 19 5 10 28 58 61 60 65 56 36 22 14 9 12 9 11 4 7 33 27 56 61 34 80 79 79 74 76 77 83 82 81 82
85 87 87 73 77 71 46 20 20 80 63 13 5 2 10 36 43 37 42 49 28 29 14 7 7 8 19 4 18 5 27 42 57 66 79 69 83 78 88 83 81 74 66 58
86 88 80 59 63 35 16 15 38 60 22 8 6 4 4 22 14 8 23 22 27 20 17 6 6 9 11 9 31 26 36 37 39 35 40 67 70 61 66 64 60 42 41 42
87 83 50 42 16 8 9 44 58 40 11 7 6 12 7 28 11 13 18 19 7 12 6 6 18 4 10 22 10 17 16 5 23 29 37 28 37 53 34 30 27 27 21 24
80 54 11 9 18 43 59 21 19 8 8 5 4 11 6 23 9 3 6 5 5 6 9 18 9 10 52 32 28 23 18 14 14 11 14 19 4 13 21 21 28 34 32 29
40 27 16 31 33 14 6 8 7 4 4 15 16 13 10 17 7 6 9 5 3 4 9 11 6 9 11 25 28 28 24 21 18 14 18 22 25 30 32 30 30 34 39 43
55 57 73 68 16 10 9 5 4 3 11 7 9 10 12 22 16 6 8 6 3 11 6 6 6 9 10 11 16 16 17 18 19 21 24 27 34 35 38 39 36 33 36 37
65 14 19 19 12 10 14 12 4 4 7 20 15 7 17 11 12 5 6 9 11 5 3 9 10 4 8 3 3 6 9 14 17 20 26 32 38 37 40 44 42 43 43 40
11 12 15 13 8 9 9 11 11 14 13 36 33 5 8 12 8 6 9 8 6 7 7 15 2 4 3 5 10 15 16 20 26 29 33 38 43 47 43 43 40 46 53 50
11 15 12 10 1 4 5 2 7 12 38 48 15 9 7 3 7 5 7 4 10 14 12 4 5 2 7 14 18 21 25 31 36 39 43 45 48 53 56 46 48 50 48 53
15 18 11 4 5 5 4 4 5 23 37 27 10 6 7 8 8 8 14 13 13 8 5 13 9 5 11 17 20 26 33 39 45 47 51 54 55 59 67 64 58 54 53 55
11 9 18 13 13 5 8 20 17 33 24 7 6 11 12 4 5 3 9 10 5 8 16 6 5 11 14 17 24 29 35 41 44 48 49 53 54 58 65 75 64 56 56 56
Wind_Direction_850mb
314 315 313 312 315 314 307 287 254 235 186 179 235 238 199 231 259 263 262 268 256 259 275 253 251 197 49 346 285 199 202 149 173 213 202 248 193 182 157 184 216 226 154 265
308 307 309 309 304 310 304 246 244 223 194 199 220 286 272 211 248 262 256 252 228 293 279 262 132 55 352 15 11 256 193 196 150 16 326 267 200 207 201 118 88 205 186 254
311 303 298 298 301 304 297 267 261 185 214 236 178 191 264 247 251 251 252 257 271 248 284 296 125 84 304 341 21 28 60 208 216 212 213 130 224 208 204 199 168 207 216 258
309 305 295 291 297 297 295 271 242 228 231 231 225 232 236 255 266 227 257 267 269 177 217 295 262 156 188 35 5 43 46 45 339 236 260 194 198 209 202 209 222 192 209 185
310 311 305 295 295 295 282 260 260 227 265 268 210 227 226 236 259 230 268 248 268 279 250 223 272 202 195 116 77 81 23 50 346 3 288 320 316 214 195 215 229 241 132 214
306 307 304 299 292 286 272 265 253 230 258 232 212 221 228 237 246 241 247 254 271 275 234 271 112 43 82 156 148 134 148 110 33 326 357 318 252 241 218 218 192 219 204 188
302 304 303 302 296 287 279 283 240 210 238 214 232 245 228 242 250 257 250 235 231 313 266 262 307 23 272 166 271 153 157 118 109 280 334 268 200 303 290 242 231 222 183 189
303 302 302 297 295 289 283 277 270 233 250 230 220 220 231 244 245 260 269 252 250 269 155 42 0 9 24 282 211 190 139 107 133 136 153 280 317 7 19 244 248 236 226 171
305 305 296 296 293 285 281 276 273 255 260 231 228 216 212 227 210 333 256 262 256 225 134 123 159 227 238 205 4 286 173 78 104 180 131 210 228 79 332 290 271 261 195 198
303 300 301 300 297 286 275 265 261 254 247 244 214 203 211 198 191 196 241 190 182 195 162 130 163 239 219 282 148 153 168 172 192 201 188 261 248 288 44 193 285 323 207 184
303 307 307 303 301 301 295 273 253 249 256 273 233 218 204 192 197 185 184 130 198 157 197 178 211 163 215 117 179 170 163 173 189 199 154 265 197 143 197 225 317 49 69 57
306 310 307 303 302 292 291 276 261 254 246 255 231 218 232 226 225 199 171 197 183 175 126 271 84 22 32 167 240 145 229 186 199 189 207 262 198 214 224 231 245 239 224 275
311 312 309 308 300 288 278 278 268 249 230 241 215 218 221 218 225 230 181 203 202 185 191 161 192 190 139 162 247 284 261 178 204 91 245 250 251 245 249 256 257 259 263 249
314 314 317 315 305 288 281 278 279 229 214 187 223 209 213 223 220 227 222 204 197 203 187 146 151 168 195 216 204 171 201 90 211 229 252 280 277 275 272 272 269 266 265 262
314 317 317 315 305 290 282 274 275 269 208 163 181 207 217 211 217 215 221 226 205 182 138 119 217 216 149 238 70 269 188 225 160 254 252 246 253 253 257 254 253 258 264 270
316 317 320 315 311 292 280 274 264 233 203 146 159 190 197 210 210 211 215 212 203 208 183 198 221 171 145 145 212 249 247 252 247 248 255 255 256 257 258 260 261 261 264 265
318 319 317 310 310 315 234 194 216 189 168 139 74 359 168 192 193 208 212 219 216 217 193 208 184 194 190 196 249 87 251 264 266 260 263 265 254 244 247 252 257 258 261 262
319 315 313 312 307 305 81 143 173 155 132 108 105 274 91 159 152 139 180 175 193 203 208 193 169 186 194 251 253 257 264 263 275 280 268 255 255 250 249 249 251 241 256 271
319 317 303 301 286 259 116 136 157 165 151 143 110 144 208 170 139 144 167 168 167 192 208 205 164 207 215 236 180 206 245 253 294 290 310 288 248 248 236 242 257 259 266 303
327 326 301 271 314 147 140 133 163 154 199 158 163 148 152 171 142 118 120 185 171 183 234 149 197 231 236 229 243 250 251 260 297 322 277 311 294 255 251 247 242 244 246 249
343 338 296 299 288 263 154 150 136 148 192 192 176 171 136 185 134 160 195 172 136 141 247 166 222 256 203 219 224 233 246 262 278 270 265 276 280 284 280 270 267 266 263 268
312 305 290 289 256 189 178 156 87 180 210 199 156 177 148 165 168 120 170 163 91 230 139 124 247 239 134 176 205 235 258 265 271 278 276 266 268 274 273 273 274 271 269 266
316 264 217 213 217 197 184 175 209 222 175 179 163 135 133 141 175 95 141 152 212 91 93 219 231 95 119 142 228 247 274 283 283 283 282 278 276 274 278 278 273 273 264 262
289 267 256 212 188 234 185 187 178 193 176 159 149 114 147 164 165 157 153 218 109 194 225 231 218 182 47 351 311 296 295 299 300 299 294 293 291 286 284 284 282 273 270 264
261 270 251 239 153 103 325 105 137 149 155 147 116 79 115 137 154 157 107 121 228 204 220 191 160 14 329 323 316 316 311 310 310 308 305 301 297 293 288 285 282 278 268 263
227 241 281 263 303 295 145 217 233 151 150 140 119 140 162 194 154 149 202 145 218 231 167 142 166 239 303 311 313 313 311 311 311 309 306 304 300 296 291 285 278 278 277 271
242 244 269 263 272 295 264 167 186 163 159 167 137 162 193 97 90 254 192 203 189 141 140 163 254 303 307 314 320 322 321 319 316 311 306 300 297 291 287 285 286 279 271 269